Location: Unspecified
(48.5539°N, 71.6350°W)
Time: 11:50:10
(UTC-05:00)

ISS - Pass Details

Date: 30 January 2019
Orbit: 403 x 411 km, 51.6° (Epoch: 20 February)

Event Time Altitude Azimuth Distance (km) Brightness Sun altitude
Rises 22:26:42 0° 282° (WNW) 2,345 - -53.6°
Reaches altitude 10° 22:29:43 10° 252° (WSW) 1,480 - -53.9°
Maximum altitude 22:31:13 13° 225° (SW) 1,332 - -54.1°
Drops below altitude 10° 22:32:46 10° 197° (SSW) 1,485 - -54.2°
Sets 22:35:44 0° 168° (SSE) 2,332 - -54.5°
